Regional Weather Roundup
Issued by NWS

Home | Current Version | Previous Version | Graphics & Text | Print | Product List | Glossary On
Versions: 1 2 3 4 5 6 7 8 9 10 11 12 13 14 15 16 17 18 19 20 21 22 23 24 25 26 27 28 29 30 31 32 33 34 35 36 37 38 39 40 41 42 43 44 45 46 47 48 49 50
000
ASUS43 KLSX 271907
RWRMO

WEATHER SUMMARY FOR MISSOURI
NATIONAL WEATHER SERVICE SPRINGFIELD MO
100 PM CST THU NOV 27 2014

NOTE: "FAIR" INDICATES FEW OR NO CLOUDS BELOW 12,000 FEET WITH NO
       SIGNIFICANT WEATHER AND/OR OBSTRUCTIONS TO VISIBILITY.
       CURRENT SKY AND/OR WEATHER CONDITIONS ARE NOT AVAILABLE FOR
       CHILLICOTHE AND FARMINGTON.

MOZ001>031-035>038-043-044-053-054-272000-
...NORTHERN AND WESTERN MISSOURI...

CITY           SKY/WX    TMP DP  RH WIND       PRES   REMARKS
KANSAS CTY INT PTSUNNY   32  21  64 CALM      30.46F
KANSAS C DTWN  MOSUNNY   35  20  54 SE5       30.47F
LEE`S SUMMIT   MOSUNNY   34  21  59 S6        30.47F WCI  29
ST JOSEPH      SUNNY     28  15  58 VRB5      30.49F WCI  23
CHILLICOTHE      N/A     28  17  63 W6        30.50F WCI  22
KIRKSVILLE     SUNNY     26  16  65 NW9       30.47F WCI  17

$$
MOZ066>068-077>081-088>096-101>105-272000-
...SOUTHWEST MISSOURI...

CITY           SKY/WX    TMP DP  RH WIND       PRES   REMARKS
SPRINGFIELD    SUNNY     39  23  52 NW5       30.47F
JOPLIN         SUNNY     40  23  50 SW6       30.50F

$$
MOZ032>034-039>042-045>050-055>058-069>072-272000-
...CENTRAL MISSOURI...

CITY           SKY/WX    TMP DP  RH WIND       PRES   REMARKS
COLUMBIA       MOSUNNY   34  22  61 NW8       30.46F WCI  27
JEFFERSON CITY CLOUDY    35  21  56 W6        30.49F
ROLLA          MOSUNNY   33  24  69 NW5       30.44F WCI  29
SEDALIA        CLOUDY    32  23  69 W6        30.49F WCI  26
WHITEMAN AFB   PTSUNNY   31  21  64 NW5       30.48F WCI  27
WARRENSBURG    CLOUDY    32  21  64 CALM      30.49F
OSAGE BEACH    CLOUDY    34  23  64 S5        30.48F WCI  30

$$
MOZ051-052-059>065-272000-
...EAST CENTRAL MISSOURI...

CITY           SKY/WX    TMP DP  RH WIND       PRES   REMARKS
ST LOUIS INTL  MOSUNNY   34  23  64 NW12G18   30.46F WCI  25
SPIRIT OF STL  PTSUNNY   34  22  61 W14       30.46F WCI  25
ST CHARLES     PTSUNNY   31  22  69 NW12      30.47S WCI  22

$$
MOZ072>076-082>087-097>100-106>115-272000-
...SOUTH CENTRAL AND SOUTHEAST MISSOURI...

CITY           SKY/WX    TMP DP  RH WIND       PRES   REMARKS
CAPE GIRARDEAU CLOUDY    35  27  72 N9        30.48F WCI  28
FARMINGTON     PTSUNNY   36  27  69 W9        30.45F WCI  29
POPLAR BLUFF   SUNNY     39  25  57 VRB6      30.47F
WEST PLAINS    SUNNY     41  23  48 W7        30.45F

$$



USA.gov is the U.S. government's official web portal to all federal, state and local government web resources and services.